Regional Weather Roundup
Issued by NWS

Home | Current Version | Previous Version | Graphics & Text | Print | Product List | Glossary On
Versions: 1 2 3 4 5 6 7 8 9 10 11 12 13 14 15 16 17 18 19 20 21 22 23 24 25 26 27 28 29 30 31 32 33 34 35 36 37 38 39 40 41 42 43 44 45 46 47 48 49 50
000
ASUS43 KOAX 260502
RWRNE

WEATHER ROUNDUP FOR NEBRASKA
NATIONAL WEATHER SERVICE OMAHA NE
1200 AM CDT WED APR 26 2017

NOTES: SATELLITE DATA IS BEING USED TO AUGMENT CLOUD COVER ABOVE
       12000 FEET.
       "FAIR" INDICATES FEW OR NO CLOUDS BELOW 12,000 FEET WITH NO
       SIGNIFICANT WEATHER AND/OR OBSTRUCTIONS TO VISIBILITY.

  * THESE STATIONS DO NOT REPORT WEATHER SUCH AS RAIN...SNOW OR FOG.

NEZ001>004-019>022-054>056-260600-
NEBRASKA PANHANDLE

CITY           SKY/WX    TMP DP  RH WIND       PRES   REMARKS
SCOTTSBLUFF    CLOUDY    32  25  75 N8        29.88F WCI  25
ALLIANCE       CLOUDY    29  24  82 N15       29.86R WCI  18
CHADRON        FLURRIES  28  25  88 N9        29.91S WCI  19
KIMBALL        LGT SNOW  31  31 100 N9        29.86S WCI  23
SIDNEY         CLOUDY    31  29  92 N14       29.85R WCI  21
$$

NEZ057>060-069>072-079>082-260600-
SOUTHWEST NEBRASKA

CITY           SKY/WX    TMP DP  RH WIND       PRES   REMARKS
NORTH PLATTE   CLOUDY    35  28  75 NW18G26   29.80R WCI  24
IMPERIAL       CLOUDY    36  30  79 N18G24    29.81S WCI  26
LEXINGTON      CLOUDY    36  32  84 N18G24    29.75F WCI  26
MCCOOK         CLOUDY    39  33  79 N17G24    29.75F WCI  30
OGALLALA       CLOUDY    36  28  74 N13       29.83F WCI  27
$$

NEZ005>010-023>029-035>040-094-260600-
NORTH CENTRAL NEBRASKA

CITY           SKY/WX    TMP DP  RH WIND       PRES   REMARKS
VALENTINE      CLOUDY    32  25  75 NW14G25   29.83S WCI  22
AINSWORTH      CLOUDY    31  30  95 N17       29.80S FOG     WCI  20
BROKEN BOW     CLOUDY    34  30  85 N24G31    29.75S WCI  21
O`NEILL        CLOUDY    35  32  89 N18       29.75S WCI  24
ORD            CLOUDY    36  31  82 NW22G30   29.73R WCI  25
THEDFORD       CLOUDY    32  28  86 NW13      29.82R WCI  22
$$

NEZ041-046>049-061>064-073>077-083>087-260600-
SOUTH CENTRAL NEBRASKA

CITY           SKY/WX    TMP DP  RH WIND       PRES   REMARKS
GRAND ISLAND   CLOUDY    37  35  92 N21G28    29.71S WCI  26
AURORA         CLOUDY    37  35  90 N20G26    29.69S WCI  27
HASTINGS       CLOUDY    39  33  79 N22G29    29.71R WCI  29
HEBRON         CLOUDY    41  34  77 N20       29.66F
HOLDREGE       CLOUDY    36  32  84 N18G28    29.72S WCI  26
KEARNEY *      CLOUDY    37  30  75 N20       29.72F WCI  27
YORK           CLOUDY    37  36  93 N17G28    29.67F WCI  28
$$

NEZ011>018-030>034-042>045-260600-
NORTHEAST NEBRASKA

CITY           SKY/WX    TMP DP  RH WIND       PRES   REMARKS
NORFOLK        CLOUDY    35  31  85 NW25G33   29.68R WCI  23
ALBION         CLOUDY    37  33  85 N16G26    29.70R WCI  27
BLAIR          CLOUDY    41  39  91 NW18      29.61R
FREMONT        CLOUDY    39  38  97 NW20      29.65R WCI  30
TEKAMAH        CLOUDY    41  38  89 NW17      29.62S
WAYNE          CLOUDY    36  36  99 NW16G26   29.66F WCI  26
$$

NEZ050>053-065>068-078-088>093-260600-
SOUTHEAST NEBRASKA

CITY           SKY/WX    TMP DP  RH WIND       PRES   REMARKS
LINCOLN        CLOUDY    42  36  79 N20       29.65S
OMAHA EPPLEY   CLOUDY    43  38  82 NW16G24   29.59F
BEATRICE       CLOUDY    42  39  89 N21       29.62F
FALLS CITY     CLOUDY    45  42  89 N10G20    29.56S
NEBRASKA CITY  CLOUDY    43  40  88 N14G20    29.58F
PLATTSMOUTH    DRIZZLE   43  39  85 NW17G30   29.58F
$$

NEZ044-045-051>053-067-260600-
OMAHA AREA

CITY           SKY/WX    TMP DP  RH WIND       PRES   REMARKS
OMAHA EPPLEY   CLOUDY    43  38  82 NW16G24   29.59F
BLAIR          CLOUDY    41  39  91 NW18      29.61R
FREMONT        CLOUDY    39  38  97 NW20      29.65R WCI  30
MILLARD        CLOUDY    44  41  87 NW15      29.61S
OFFUTT AFB     CLOUDY    43  39  87 NW14G24   29.58F
PLATTSMOUTH    DRIZZLE   43  39  85 NW17G30   29.58F
WAHOO          CLOUDY    39  36  88 NW17G28   29.65R WCI  30
$$




USA.gov is the U.S. government's official web portal to all federal, state and local government web resources and services.